TimeEST,TemperatureF,Dew PointF,Humidity,Sea Level PressureIn,VisibilityMPH,Wind Direction,Wind SpeedMPH,Gust SpeedMPH,PrecipitationIn,Events,Conditions,WindDirDegrees,DateUTC
12:15 AM,50.0,44.6,82,29.94,-9999.0,SW,4.6,-,N/A,,Overcast,230,2012-12-25 05:15:00
12:35 AM,50.0,44.6,82,29.94,10.0,SW,4.6,-,N/A,,Overcast,220,2012-12-25 05:35:00
12:55 AM,50.0,44.6,82,29.93,10.0,SW,4.6,-,N/A,,Overcast,230,2012-12-25 05:55:00
1:15 AM,50.0,44.6,82,29.94,10.0,SSW,5.8,-,N/A,,Overcast,210,2012-12-25 06:15:00
1:35 AM,50.0,44.6,82,29.94,10.0,SW,5.8,-,N/A,,Overcast,220,2012-12-25 06:35:00
1:55 AM,48.2,44.6,87,29.95,10.0,SW,3.5,-,N/A,,Overcast,230,2012-12-25 06:55:00
2:15 AM,48.2,44.6,87,29.97,10.0,West,3.5,-,N/A,,Overcast,270,2012-12-25 07:15:00
2:35 AM,48.2,44.6,87,29.97,-9999.0,Calm,Calm,-,N/A,,Overcast,0,2012-12-25 07:35:00
2:55 AM,46.4,44.6,93,29.97,10.0,Calm,Calm,-,N/A,,Overcast,0,2012-12-25 07:55:00
3:15 AM,46.4,42.8,87,29.97,10.0,Calm,Calm,-,N/A,,Overcast,0,2012-12-25 08:15:00
3:35 AM,46.4,42.8,87,29.97,10.0,Calm,Calm,-,N/A,,Overcast,0,2012-12-25 08:35:00
3:55 AM,46.4,42.8,87,29.97,10.0,Calm,Calm,-,N/A,,Overcast,0,2012-12-25 08:55:00
4:15 AM,44.6,42.8,93,29.98,10.0,Calm,Calm,-,N/A,,Overcast,0,2012-12-25 09:15:00
4:35 AM,44.6,42.8,93,29.98,10.0,Calm,Calm,-,N/A,,Overcast,0,2012-12-25 09:35:00
4:55 AM,44.6,42.8,93,29.99,10.0,SW,3.5,-,N/A,,Overcast,220,2012-12-25 09:55:00
5:15 AM,42.8,41.0,93,30.00,10.0,Calm,Calm,-,N/A,,Overcast,0,2012-12-25 10:15:00
5:35 AM,41.0,41.0,100,30.02,5.0,Calm,Calm,-,N/A,,Mostly Cloudy,0,2012-12-25 10:35:00
5:55 AM,37.4,37.4,100,30.03,0.2,Calm,Calm,-,N/A,Fog,Fog,0,2012-12-25 10:55:00
6:15 AM,37.4,37.4,100,30.03,2.0,Calm,Calm,-,N/A,,Clear,0,2012-12-25 11:15:00
6:35 AM,35.6,35.6,100,30.05,-9999.0,Calm,Calm,-,N/A,,Unknown,0,2012-12-25 11:35:00
6:55 AM,35.6,35.6,100,30.06,1.0,Calm,Calm,-,N/A,,Mostly Cloudy,0,2012-12-25 11:55:00
7:15 AM,37.4,37.4,100,30.07,5.0,Calm,Calm,-,N/A,,Overcast,0,2012-12-25 12:15:00
7:35 AM,41.0,41.0,100,30.08,7.0,West,3.5,-,N/A,,Overcast,270,2012-12-25 12:35:00
7:55 AM,42.8,42.8,100,30.08,7.0,NW,3.5,-,N/A,,Overcast,320,2012-12-25 12:55:00
8:15 AM,42.8,42.8,100,30.09,5.0,NW,3.5,-,N/A,,Overcast,310,2012-12-25 13:15:00
8:35 AM,42.8,42.8,100,30.09,7.0,NW,3.5,-,N/A,,Overcast,320,2012-12-25 13:35:00
8:55 AM,44.6,44.6,100,30.10,10.0,NNW,3.5,-,N/A,,Overcast,330,2012-12-25 13:55:00
9:15 AM,44.6,44.6,100,30.10,10.0,North,3.5,-,N/A,,Overcast,350,2012-12-25 14:15:00
9:35 AM,44.6,42.8,93,30.11,10.0,NNW,4.6,-,N/A,,Overcast,330,2012-12-25 14:35:00
9:55 AM,44.6,42.8,93,30.12,10.0,NNW,3.5,-,N/A,,Overcast,340,2012-12-25 14:55:00
10:15 AM,46.4,44.6,93,30.12,10.0,NNW,3.5,-,N/A,,Overcast,340,2012-12-25 15:15:00
10:35 AM,48.2,42.8,82,30.13,10.0,North,4.6,-,N/A,,Mostly Cloudy,350,2012-12-25 15:35:00
10:55 AM,50.0,42.8,76,30.13,10.0,North,3.5,-,N/A,,Scattered Clouds,350,2012-12-25 15:55:00
11:15 AM,50.0,42.8,76,30.11,10.0,North,5.8,-,N/A,,Scattered Clouds,360,2012-12-25 16:15:00
11:35 AM,51.8,42.8,71,30.11,10.0,NNW,6.9,-,N/A,,Scattered Clouds,330,2012-12-25 16:35:00
11:55 AM,51.8,42.8,71,30.10,10.0,NNE,4.6,-,N/A,,Clear,30,2012-12-25 16:55:00
12:15 PM,51.8,41.0,67,30.10,10.0,NNE,4.6,-,N/A,,Clear,20,2012-12-25 17:15:00
12:35 PM,53.6,41.0,62,30.09,10.0,NNW,5.8,-,N/A,,Clear,340,2012-12-25 17:35:00
12:55 PM,53.6,41.0,62,30.10,10.0,North,5.8,-,N/A,,Scattered Clouds,10,2012-12-25 17:55:00
1:15 PM,53.6,41.0,62,30.08,10.0,NNE,5.8,-,N/A,,Scattered Clouds,20,2012-12-25 18:15:00
1:35 PM,53.6,41.0,62,30.07,10.0,North,6.9,-,N/A,,Scattered Clouds,360,2012-12-25 18:35:00
1:55 PM,53.6,41.0,62,30.08,-9999.0,ENE,8.1,-,N/A,,Scattered Clouds,70,2012-12-25 18:55:00
2:15 PM,53.6,41.0,62,30.09,10.0,North,6.9,-,N/A,,Scattered Clouds,360,2012-12-25 19:15:00
2:35 PM,53.6,41.0,62,30.10,10.0,North,4.6,-,N/A,,Mostly Cloudy,360,2012-12-25 19:35:00
2:55 PM,53.6,41.0,62,30.10,10.0,North,5.8,-,N/A,,Mostly Cloudy,10,2012-12-25 19:55:00
3:15 PM,51.8,41.0,67,30.10,-9999.0,North,5.8,-,N/A,,Mostly Cloudy,360,2012-12-25 20:15:00
3:35 PM,51.8,41.0,67,30.11,10.0,North,5.8,-,N/A,,Mostly Cloudy,10,2012-12-25 20:35:00
3:55 PM,51.8,41.0,67,30.13,10.0,NNE,4.6,-,N/A,,Overcast,20,2012-12-25 20:55:00
4:15 PM,51.8,41.0,67,30.13,10.0,North,3.5,-,N/A,,Overcast,10,2012-12-25 21:15:00
4:35 PM,50.0,41.0,71,30.12,10.0,North,3.5,-,N/A,,Overcast,10,2012-12-25 21:35:00
4:55 PM,50.0,41.0,71,30.12,-9999.0,North,4.6,-,N/A,,Overcast,10,2012-12-25 21:55:00
5:15 PM,50.0,41.0,71,30.14,10.0,North,3.5,-,N/A,,Overcast,10,2012-12-25 22:15:00
5:35 PM,48.2,41.0,76,30.13,10.0,NNE,4.6,-,N/A,,Mostly Cloudy,20,2012-12-25 22:35:00
5:55 PM,46.4,41.0,81,30.13,10.0,NNE,4.6,-,N/A,,Scattered Clouds,20,2012-12-25 22:55:00
6:15 PM,46.4,41.0,81,30.12,10.0,NNE,4.6,-,N/A,,Clear,20,2012-12-25 23:15:00
6:55 PM,44.6,41.0,87,30.14,-9999.0,NNE,3.5,-,N/A,,Clear,30,2012-12-25 23:55:00
7:15 PM,44.6,41.0,87,30.15,10.0,Calm,Calm,-,N/A,,Mostly Cloudy,0,2012-12-26 00:15:00
7:35 PM,44.6,41.0,87,30.16,10.0,NNE,3.5,-,N/A,,Overcast,30,2012-12-26 00:35:00
7:55 PM,44.6,39.2,81,30.18,10.0,Calm,Calm,-,N/A,,Overcast,0,2012-12-26 00:55:00
8:15 PM,44.6,39.2,81,30.17,10.0,NNE,4.6,-,N/A,,Overcast,30,2012-12-26 01:15:00
8:35 PM,44.6,39.2,81,30.18,10.0,NNE,3.5,-,N/A,,Overcast,30,2012-12-26 01:35:00
9:15 PM,44.6,39.2,81,30.19,10.0,ENE,4.6,-,N/A,,Overcast,60,2012-12-26 02:15:00
9:35 PM,44.6,39.2,81,30.20,10.0,ENE,3.5,-,N/A,,Overcast,60,2012-12-26 02:35:00
9:55 PM,44.6,37.4,76,30.19,10.0,NNE,4.6,-,N/A,,Overcast,30,2012-12-26 02:55:00
10:15 PM,44.6,37.4,76,30.18,10.0,NNE,5.8,-,N/A,,Overcast,30,2012-12-26 03:15:00
11:15 PM,44.6,35.6,71,30.18,10.0,NNE,3.5,-,N/A,,Overcast,30,2012-12-26 04:15:00
11:35 PM,42.8,35.6,76,30.17,10.0,NNE,6.9,-,N/A,,Mostly Cloudy,20,2012-12-26 04:35:00
11:55 PM,42.8,35.6,76,30.17,10.0,North,4.6,-,N/A,,Scattered Clouds,360,2012-12-26 04:55:00